Location: Newark
(21.1200°N, 73.4000°E)
Time: 03:09:17
(UTC+00:00)

Courier 1B Rocket - Pass Details

Date: 24 January 2020
Orbit: 920 x 1202 km, 28.2° (Epoch: 17 February)

Event Time Altitude Azimuth Distance (km) Brightness Sun altitude
Rises 12:07:54 0° 289° (WNW) 3,635 8.8 8.5°
Reaches altitude 10° 12:10:35 10° 288° (WNW) 2,659 8.2 7.9°
Maximum altitude 12:16:57 80° 202° (SSW) 935 5.2 6.6°
Drops below altitude 10° 12:23:10 10° 116° (ESE) 2,601 6.9 5.2°
Sets 12:25:46 0° 115° (ESE) 3,552 7.5 4.7°
